Location: Caltech
(34.1382°N, 118.1253°W)
Time: 07:03:49
(UTC-07:00)

AO-Echo - Visible Passes

Search period start: 28 May 2015 00:00
Search period end: 07 June 2015 00:00
Orbit: 693 x 812 km, 98.3° (Epoch: 27 May)

Date Brightness Start Highest point End Pass type
(mag) Time Alt. Az. Time Alt. Az. Time Alt. Az.
28 May ? 01:22:43 10° ENE 01:23:30 11° E 01:23:30 11° E visible
28 May ? 02:58:27 10° N 03:03:27 67° WNW 03:03:27 67° WNW visible
29 May ? 02:18:15 10° NNE 02:22:43 46° E 02:22:43 46° E visible
29 May ? 03:58:14 10° NNW 04:01:38 18° WNW 04:02:40 17° W visible
30 May ? 01:39:10 10° NE 01:41:58 18° E 01:41:58 18° E visible
30 May ? 03:16:43 10° N 03:21:33 43° WNW 03:21:55 42° W visible
31 May ? 02:36:13 10° NNE 02:41:10 73° E 02:41:10 73° E visible
31 May ? 04:17:45 10° NW 04:19:37 12° WNW 04:21:07 10° W visible
01 Jun ? 01:56:31 10° NE 02:00:25 28° E 02:00:25 28° E visible
01 Jun ? 03:35:12 10° NNW 03:39:37 29° WNW 03:40:22 28° W visible
02 Jun ? 01:19:15 10° E 01:19:40 10° E 01:19:40 10° E visible
02 Jun ? 02:54:19 10° N 02:59:28 73° WNW 02:59:37 72° W visible
03 Jun ? 02:14:14 10° NNE 02:18:52 43° E 02:18:52 43° E visible
03 Jun ? 03:53:56 10° NNW 03:57:38 20° WNW 03:58:49 18° W visible
04 Jun ? 01:35:16 10° NE 01:38:06 17° E 01:38:06 17° E visible
04 Jun ? 03:12:35 10° N 03:17:33 47° WNW 03:18:04 46° W visible
05 Jun ? 02:32:08 10° NNE 02:37:18 68° E 02:37:18 68° E visible
05 Jun ? 04:13:10 10° NW 04:15:37 13° WNW 04:17:15 11° W visible
06 Jun ? 01:52:33 10° NE 01:56:32 26° E 01:56:32 26° E visible
06 Jun ? 03:31:01 10° N 03:35:36 32° WNW 03:36:29 30° W visible
